Voltar ao catálogo

COSMOS 2569

GLONASS

AtivoNavegaçãoMEO
NORAD 57517·PAYLOAD·🇷🇺 Russia

Lançado Aug 7, 2023 de Plesetsk Cosmodrome

Loading…

Próximas Passagens (próximas 24 horas)

TLE

AtualizadoSource: CelesTrak SupGP

Época: Sep 12, 2026, 23:59 UTC

1 57517C 23114A   26255.99979167  .00000000  00000+0  00000+0 0  2556
2 57517  65.3575  69.6613 0008563 288.3160  67.8481  2.13102816    18

Acompanhe COSMOS 2569 em tempo real com AllMySat

Download on the App Store